Location: Plum Creek
(38.2334°N, 100.0449°W)
Time: 17:08:03
(UTC+00:00)

Daily predictions for brighter satellites

Satellite Brightness Start Highest point End
(mag) Time Altitude Azimuth Time Altitude Azimuth Time Altitude Azimuth
Lacrosse 4 Rocket 3.1 12:04:26 14° WNW 12:04:51 14° NW 12:07:09 10° NNW
SAR-Lupe-4 3.9 12:04:27 10° S 12:07:49 41° W 12:11:13 10° NNW
FENGYUN 3A 4.3 12:07:13 10° N 12:12:01 33° WNW 12:16:49 10° SW
Cosmos 1092 Rocket 4.0 12:06:38 10° SSW 12:12:37 55° W 12:18:43 10° N
Cosmos 1606 Rocket 3.8 12:08:58 10° NNW 12:13:17 48° W 12:17:34 10° SSW
Cosmos 2228 3.4 12:10:05 10° NNW 12:14:13 43° W 12:18:21 10° SSW
COSMO-SKYMED 1 2.6 12:10:26 10° S 12:14:43 62° W 12:19:02 10° NNW
ATLAS 3B R/B 2.8 12:11:08 10° SW 12:17:28 49° NW 12:23:54 10° NNE
Cosmos 1992 Rocket 4.0 12:12:24 10° NNW 12:17:36 72° WSW 12:22:46 10° S
Cosmos 1980 Rocket 2.3 12:13:23 10° NNW 12:19:00 80° ENE 12:24:36 10° SSE
Cosmos 967 Rocket 4.5 12:12:44 10° NNW 12:19:03 86° WSW 12:25:18 10° SSE
Cosmos 1300 2.9 12:15:53 10° NNW 12:19:33 45° W 12:23:11 10° SSW
CZ-4B R/B 3.3 12:20:36 10° N 12:24:22 40° WNW 12:28:19 10° SW
Cosmos 1484 Rocket 4.4 12:22:25 10° NNW 12:24:41 15° WNW 12:26:55 10° WSW
BREEZE-M DEB (TANK) 2.5 12:23:58 10° WNW 12:26:12 26° SW 12:28:08 10° SSE
Cosmos 2360 4.3 12:21:42 10° NNW 12:27:17 58° WSW 12:32:49 10° S
Okean 1-7 Rocket 3.8 12:26:30 10° SSW 12:30:57 54° W 12:35:25 10° N
Cosmos 2251 Rocket 4.0 12:26:27 10° SW 12:31:25 38° WNW 12:36:25 10° N
Spot 2 4.2 12:30:41 10° N 12:35:12 70° WNW 12:39:58 10° SSW
